Weather History for KBIS - December, 2014

Change the Weather History Date:

Friday, December 19, 2014

  Actual Average Record
Temperature  
Mean Temperature 27 °F 15 °F  
Max Temperature 39 °F 25 °F 59 °F (1894)
Min Temperature 15 °F 5 °F -36 °F (1983)
Degree Days  
Heating Degree Days 38 50  
Month to date heating degree days 820 898  
Since 1 July heating degree days 2892 2884  
Cooling Degree Days 0 0  
Month to date cooling degree days 0 0  
Year to date cooling degree days 457 520  
Moisture  
Dew Point 20 °F    
Average Humidity 82    
Maximum Humidity 100    
Minimum Humidity 64    
Precipitation  
Precipitation 0.00 in 0.02 in 0.27 in (1884)
Month to date precipitation T 0.29  
Year to date precipitation 13.81 17.65  
Snow  
Snow 0.00 in 0.30 in 4.60 in (1960)
Month to date snowfall 0.1 5.3  
Since 1 July snowfall 8.0 16.5  
Snow Depth T in    
Sea Level Pressure  
Sea Level Pressure 30.02 in    
Wind  
Wind Speed 4 mph (ESE)    
Max Wind Speed 8 mph    
Max Gust Speed 10 mph    
Visibility 8 miles    
Events      
T = Trace of Precipitation, MM = Missing Value Source: NWS Daily Summary

Daily Weather History Graph

Daily Weather History Graph

Search for Another Location

Airport or City:

Trip Planner

Search our weather history database for the weather conditions in past years. The results will help you decide how hot, cold, wet, or windy it might be!

Date:

Astronomy

Dec. 19, 2014 Rise Set
Actual Time 8:23 AM CST 4:56 PM CST
Civil Twilight 7:48 AM CST 5:31 PM CST
Nautical Twilight 7:09 AM CST 6:10 PM CST
Astronomical Twilight 6:33 AM CST 6:47 PM CST
Moon 5:32 AM CST (12/19) 3:27 PM CST (12/19)
Length of Visible Light 9h 43m
Length of Day
8h 32m
Waning Crescent, 7% of the Moon is Illuminated
Dec 19
Waning Crescent
Dec 21
New
Dec 28
First Quarter
Jan 4
Full
Jan 13
Last Quarter

Hourly Weather History & Observations

Time (CST) Temp. Windchill Dew Point Humidity Pressure Visibility Wind Dir Wind Speed Gust Speed Precip Events Conditions
12:52 AM 27.0 °F 19.5 °F 25.0 °F 92% 30.07 in 7.0 mi SSE 6.9 mph - N/A   Overcast
1:40 AM 21.9 °F 14.5 °F 21.0 °F 96% 29.98 in 7.0 mi SSE 5.8 mph - N/A   Mostly Cloudy
1:52 AM 21.9 °F 14.5 °F 19.9 °F 92% 30.06 in 7.0 mi South 5.8 mph - N/A   Partly Cloudy
2:52 AM 18.0 °F 11.1 °F 15.1 °F 88% 30.07 in 6.0 mi SSE 4.6 mph - N/A   Clear
3:52 AM 19.0 °F 12.3 °F 15.1 °F 85% 30.06 in 7.0 mi ESE 4.6 mph - N/A   Mostly Cloudy
4:52 AM 21.0 °F 16.2 °F 19.9 °F 96% 30.05 in 7.0 mi SE 3.5 mph - N/A   Overcast
5:52 AM 21.9 °F 15.7 °F 21.0 °F 96% 30.04 in 8.0 mi SE 4.6 mph - N/A   Overcast
6:52 AM 21.9 °F 15.7 °F 21.0 °F 96% 30.04 in 8.0 mi SSE 4.6 mph - N/A   Overcast
7:52 AM 23.0 °F 18.4 °F 21.0 °F 92% 30.04 in 8.0 mi ESE 3.5 mph - N/A   Overcast
8:52 AM 21.9 °F 15.7 °F 21.0 °F 96% 30.04 in 7.0 mi SSE 4.6 mph - N/A   Clear
9:52 AM 23.0 °F 18.4 °F 21.0 °F 92% 30.04 in 7.0 mi ESE 3.5 mph - N/A   Clear
10:52 AM 24.8 °F 20.5 °F 23.0 °F 93% 29.97 in 8.0 mi SE 3.5 mph - N/A   Clear
11:52 AM 28.0 °F - 24.1 °F 85% 30.02 in 10.0 mi Calm Calm - N/A   Clear
12:52 PM 30.0 °F - 25.0 °F 82% 30.00 in 10.0 mi Calm Calm - N/A   Clear
1:52 PM 37.0 °F - 27.0 °F 67% 29.99 in 10.0 mi Calm Calm - N/A   Clear
2:52 PM 37.9 °F - 28.0 °F 68% 29.99 in 10.0 mi Calm Calm - N/A   Clear
3:52 PM 37.0 °F 34.5 °F 27.0 °F 67% 30.00 in 10.0 mi East 3.5 mph - N/A   Clear
4:52 PM 33.8 °F 29.6 °F 26.6 °F 75% 29.94 in 10.0 mi ENE 4.6 mph - N/A   Clear
5:52 PM 26.1 °F 20.5 °F 23.0 °F 88% 30.03 in 10.0 mi East 4.6 mph - N/A   Clear
6:52 PM 26.1 °F 19.4 °F 24.1 °F 92% 30.03 in 10.0 mi ENE 5.8 mph - N/A   Clear
7:52 PM 21.9 °F 14.5 °F 19.9 °F 92% 30.03 in 10.0 mi ENE 5.8 mph - N/A   Clear
8:52 PM 21.0 °F 13.4 °F 19.9 °F 96% 30.03 in 9.0 mi ENE 5.8 mph - N/A   Clear
9:52 PM 19.0 °F 13.9 °F 18.0 °F 96% 30.03 in 8.0 mi ENE 3.5 mph - N/A   Clear
10:52 PM 17.1 °F 10.0 °F 16.0 °F 96% 30.04 in 7.0 mi ENE 4.6 mph - N/A   Scattered Clouds
11:04 PM 17.1 °F 11.7 °F 14.0 °F 88% 29.96 in 6.0 mi ENE 3.5 mph - N/A   Mostly Cloudy
11:31 PM 16.0 °F 8.8 °F 12.9 °F 88% 29.96 in 2.0 mi ENE 4.6 mph - N/A   Overcast
11:42 PM 16.0 °F 8.8 °F 12.0 °F 84% 29.96 in 5.0 mi ENE 4.6 mph - N/A   Overcast
11:52 PM 15.1 °F - 10.9 °F 84% 30.04 in 7.0 mi Calm Calm - N/A   Overcast